Location: Alpha Ridge Park
(39.3209°N, 76.9128°W)
Time: 18:45:26
(UTC-04:00)

Vanguard 2 Rocket - Pass Details

Date: 30 May 2019
Orbit: 554 x 3326 km, 32.9° (Epoch: 17 June)

Event Time Altitude Azimuth Distance (km) Brightness Sun altitude
Rises 07:11:28 0° 261° (W) 7,314 10.9 14.8°
Reaches altitude 10° 07:16:32 10° 260° (W) 6,245 10.6 15.7°
Maximum altitude 07:35:46 69° 183° (S) 2,745 9.6 19.3°
Drops below altitude 10° 07:47:56 10° 103° (ESE) 4,176 11.7 21.6°
Sets 07:50:37 0° 101° (E) 4,866 11.8 22.1°
